Time,TemperatureF,DewpointF,PressureIn,WindDirection,WindDirectionDegrees,WindSpeedMPH,WindSpeedGustMPH,Humidity,HourlyPrecipIn,Conditions,Clouds,dailyrainin,SoftwareType,DateUTC
2013-04-29 00:01:00,57.2,57.0,30.04,East,86,0.0,0.0,99,0.00,,,0.00,weatherlink.com 1.10,2013-04-29 04:01:00,
2013-04-29 00:16:00,57.3,57.0,30.04,East,86,0.0,0.0,99,0.00,,,0.00,weatherlink.com 1.10,2013-04-29 04:16:00,
2013-04-29 00:31:00,57.5,57.0,30.03,East,86,0.0,0.0,99,0.00,,,0.00,weatherlink.com 1.10,2013-04-29 04:31:00,
2013-04-29 00:46:00,57.7,58.0,30.03,East,86,0.0,0.0,99,0.00,,,0.00,weatherlink.com 1.10,2013-04-29 04:46:00,
2013-04-29 01:01:00,57.8,58.0,30.03,East,86,0.0,0.0,99,0.00,,,0.00,weatherlink.com 1.10,2013-04-29 05:01:00,
2013-04-29 01:16:00,57.9,58.0,30.03,East,86,0.0,0.0,99,0.00,,,0.00,weatherlink.com 1.10,2013-04-29 05:16:00,
2013-04-29 01:31:00,57.9,58.0,30.02,East,86,0.0,0.0,99,0.00,,,0.00,weatherlink.com 1.10,2013-04-29 05:31:00,
2013-04-29 01:46:00,57.9,58.0,30.02,East,86,0.0,0.0,99,0.00,,,0.00,weatherlink.com 1.10,2013-04-29 05:46:00,
2013-04-29 02:01:00,57.9,58.0,30.02,East,86,0.0,0.0,99,0.00,,,0.00,weatherlink.com 1.10,2013-04-29 06:01:00,
2013-04-29 02:16:00,58.0,58.0,30.02,East,86,0.0,0.0,99,0.00,,,0.00,weatherlink.com 1.10,2013-04-29 06:16:00,
2013-04-29 02:31:00,58.0,58.0,30.02,East,86,0.0,0.0,99,0.00,,,0.00,weatherlink.com 1.10,2013-04-29 06:31:00,
2013-04-29 02:46:00,58.1,58.0,30.02,East,86,0.0,0.0,99,0.00,,,0.00,weatherlink.com 1.10,2013-04-29 06:46:00,
2013-04-29 03:01:00,58.0,58.0,30.01,East,86,0.0,0.0,99,0.00,,,0.00,weatherlink.com 1.10,2013-04-29 07:01:00,
2013-04-29 03:16:00,58.0,58.0,30.01,East,86,0.0,0.0,99,0.00,,,0.00,weatherlink.com 1.10,2013-04-29 07:16:00,
2013-04-29 03:31:00,58.1,58.0,30.01,East,86,0.0,0.0,99,0.00,,,0.00,weatherlink.com 1.10,2013-04-29 07:31:00,
2013-04-29 03:46:00,58.1,58.0,30.01,East,86,0.0,0.0,99,0.00,,,0.00,weatherlink.com 1.10,2013-04-29 07:46:00,
2013-04-29 04:01:00,58.1,58.0,30.01,East,86,0.0,0.0,99,0.00,,,0.00,weatherlink.com 1.10,2013-04-29 08:01:00,
2013-04-29 04:16:00,58.1,58.0,30.00,East,86,0.0,0.0,99,0.00,,,0.00,weatherlink.com 1.10,2013-04-29 08:16:00,
2013-04-29 04:31:00,58.2,58.0,30.00,East,86,0.0,0.0,99,0.00,,,0.00,weatherlink.com 1.10,2013-04-29 08:31:00,
2013-04-29 04:46:00,58.3,58.0,30.00,East,86,0.0,0.0,99,0.00,,,0.00,weatherlink.com 1.10,2013-04-29 08:46:00,
2013-04-29 05:01:00,58.2,58.0,30.00,East,86,0.0,0.0,99,0.00,,,0.00,weatherlink.com 1.10,2013-04-29 09:01:00,
2013-04-29 05:16:00,58.2,58.0,30.00,East,86,0.0,0.0,99,0.00,,,0.00,weatherlink.com 1.10,2013-04-29 09:16:00,
2013-04-29 05:31:00,58.2,58.0,29.99,East,86,0.0,0.0,99,0.00,,,0.00,weatherlink.com 1.10,2013-04-29 09:31:00,
2013-04-29 05:46:00,58.2,58.0,29.99,East,86,0.0,0.0,99,0.00,,,0.00,weatherlink.com 1.10,2013-04-29 09:46:00,
2013-04-29 06:01:00,58.4,58.0,30.00,East,86,0.0,0.0,99,0.00,,,0.00,weatherlink.com 1.10,2013-04-29 10:01:00,
2013-04-29 06:16:00,58.6,58.0,30.00,East,86,0.0,0.0,99,0.00,,,0.00,weatherlink.com 1.10,2013-04-29 10:16:00,
2013-04-29 06:31:00,58.6,58.0,30.00,WSW,242,0.0,0.0,99,0.00,,,0.00,weatherlink.com 1.10,2013-04-29 10:31:00,
2013-04-29 06:46:00,58.6,58.0,30.01,WSW,251,0.0,0.0,99,0.00,,,0.00,weatherlink.com 1.10,2013-04-29 10:46:00,
2013-04-29 07:01:00,58.7,59.0,30.02,WSW,251,0.0,0.0,99,0.00,,,0.00,weatherlink.com 1.10,2013-04-29 11:01:00,
2013-04-29 07:16:00,58.7,59.0,30.00,WSW,251,0.0,0.0,99,0.00,,,0.00,weatherlink.com 1.10,2013-04-29 11:16:00,
2013-04-29 07:31:00,58.9,59.0,30.00,WSW,251,0.0,0.0,99,0.00,,,0.00,weatherlink.com 1.10,2013-04-29 11:31:00,
2013-04-29 07:46:00,59.0,59.0,30.01,WSW,251,0.0,0.0,99,0.00,,,0.00,weatherlink.com 1.10,2013-04-29 11:46:00,
2013-04-29 08:01:00,59.2,59.0,30.02,WSW,251,0.0,0.0,99,0.00,,,0.00,weatherlink.com 1.10,2013-04-29 12:01:00,
2013-04-29 08:16:00,59.4,59.0,30.02,East,92,0.0,0.0,99,0.00,,,0.00,weatherlink.com 1.10,2013-04-29 12:16:00,
2013-04-29 08:31:00,59.4,59.0,30.02,East,91,0.0,0.0,99,0.00,,,0.00,weatherlink.com 1.10,2013-04-29 12:31:00,
2013-04-29 08:46:00,59.6,59.0,30.02,NNE,29,0.0,0.0,99,0.00,,,0.00,weatherlink.com 1.10,2013-04-29 12:46:00,
2013-04-29 09:01:00,60.0,60.0,30.02,SW,231,0.0,0.0,99,0.00,,,0.00,weatherlink.com 1.10,2013-04-29 13:01:00,
2013-04-29 09:16:00,60.1,60.0,30.02,WSW,257,0.0,2.0,99,0.00,,,0.00,weatherlink.com 1.10,2013-04-29 13:16:00,
2013-04-29 09:31:00,60.3,60.0,30.02,WSW,240,1.0,2.0,99,0.00,,,0.00,weatherlink.com 1.10,2013-04-29 13:31:00,
2013-04-29 09:46:00,60.1,60.0,30.02,NW,319,0.0,3.0,99,0.00,,,0.00,weatherlink.com 1.10,2013-04-29 13:46:00,
2013-04-29 10:01:00,60.5,60.0,30.02,NW,319,1.0,1.0,99,0.00,,,0.00,weatherlink.com 1.10,2013-04-29 14:01:00,
2013-04-29 10:16:00,60.9,61.0,30.02,NW,319,1.0,2.0,99,0.00,,,0.00,weatherlink.com 1.10,2013-04-29 14:16:00,
2013-04-29 10:31:00,61.3,61.0,30.02,South,189,1.0,2.0,99,0.00,,,0.00,weatherlink.com 1.10,2013-04-29 14:31:00,
2013-04-29 10:46:00,61.7,62.0,30.02,South,189,1.0,1.0,99,0.00,,,0.00,weatherlink.com 1.10,2013-04-29 14:46:00,
2013-04-29 11:01:00,62.1,61.0,30.02,West,260,0.0,2.0,97,0.00,,,0.00,weatherlink.com 1.10,2013-04-29 15:01:00,
2013-04-29 11:17:00,62.7,62.0,30.03,West,260,1.0,1.0,96,0.00,,,0.00,weatherlink.com 1.10,2013-04-29 15:17:00,
2013-04-29 11:32:00,63.1,62.0,30.03,SE,127,1.0,3.0,95,0.00,,,0.00,weatherlink.com 1.10,2013-04-29 15:32:00,
2013-04-29 11:47:00,63.5,62.0,30.03,SE,127,1.0,1.0,95,0.00,,,0.00,weatherlink.com 1.10,2013-04-29 15:47:00,
2013-04-29 12:02:00,64.0,62.0,30.03,SW,222,0.0,2.0,94,0.00,,,0.00,weatherlink.com 1.10,2013-04-29 16:02:00,
2013-04-29 12:17:00,64.9,63.0,30.03,NW,308,0.0,2.0,92,0.00,,,0.00,weatherlink.com 1.10,2013-04-29 16:17:00,
2013-04-29 12:32:00,65.6,63.0,30.03,SE,134,0.0,2.0,90,0.00,,,0.00,weatherlink.com 1.10,2013-04-29 16:32:00,
2013-04-29 12:47:00,66.2,63.0,30.02,SE,130,2.0,4.0,90,0.00,,,0.00,weatherlink.com 1.10,2013-04-29 16:47:00,
2013-04-29 13:02:00,66.9,64.0,30.01,SE,132,0.0,4.0,90,0.00,,,0.00,weatherlink.com 1.10,2013-04-29 17:02:00,
2013-04-29 13:17:00,67.1,64.0,30.01,SSE,163,0.0,2.0,88,0.00,,,0.00,weatherlink.com 1.10,2013-04-29 17:17:00,
2013-04-29 13:32:00,67.1,64.0,30.01,SSE,157,0.0,1.0,88,0.00,,,0.00,weatherlink.com 1.10,2013-04-29 17:32:00,
2013-04-29 13:47:00,67.6,64.0,30.00,SSE,157,1.0,1.0,88,0.00,,,0.00,weatherlink.com 1.10,2013-04-29 17:47:00,
2013-04-29 14:02:00,68.1,64.0,30.00,SSE,164,1.0,2.0,85,0.00,,,0.00,weatherlink.com 1.10,2013-04-29 18:02:00,
2013-04-29 14:17:00,68.9,65.0,29.99,SE,128,2.0,3.0,86,0.00,,,0.00,weatherlink.com 1.10,2013-04-29 18:17:00,
2013-04-29 14:32:00,68.9,64.0,29.99,ESE,120,2.0,4.0,84,0.00,,,0.00,weatherlink.com 1.10,2013-04-29 18:32:00,
2013-04-29 14:47:00,69.6,64.0,29.98,WNW,285,1.0,4.0,81,0.00,,,0.00,weatherlink.com 1.10,2013-04-29 18:47:00,
2013-04-29 15:02:00,69.7,64.0,29.98,SE,130,3.0,4.0,82,0.00,,,0.00,weatherlink.com 1.10,2013-04-29 19:02:00,
2013-04-29 15:17:00,70.1,63.0,29.97,ESE,110,1.0,3.0,79,0.00,,,0.00,weatherlink.com 1.10,2013-04-29 19:17:00,
2013-04-29 15:32:00,71.6,64.0,29.96,SW,215,2.0,5.0,78,0.00,,,0.00,weatherlink.com 1.10,2013-04-29 19:32:00,
2013-04-29 15:47:00,73.0,65.0,29.95,ESE,117,4.0,4.0,75,0.00,,,0.00,weatherlink.com 1.10,2013-04-29 19:47:00,
2013-04-29 16:02:00,72.8,62.0,29.95,WSW,248,1.0,5.0,70,0.00,,,0.00,weatherlink.com 1.10,2013-04-29 20:02:00,
2013-04-29 16:17:00,73.0,63.0,29.94,SE,125,1.0,3.0,72,0.00,,,0.00,weatherlink.com 1.10,2013-04-29 20:17:00,
2013-04-29 16:32:00,72.8,63.0,29.94,SE,124,1.0,6.0,71,0.00,,,0.00,weatherlink.com 1.10,2013-04-29 20:32:00,
2013-04-29 16:47:00,74.0,64.0,29.94,SSE,165,1.0,3.0,70,0.00,,,0.00,weatherlink.com 1.10,2013-04-29 20:47:00,
2013-04-29 17:17:00,73.3,62.0,29.93,SSW,194,0.0,2.0,68,0.00,,,0.00,weatherlink.com 1.10,2013-04-29 21:17:00,
2013-04-29 17:32:00,72.1,63.0,29.93,South,190,1.0,1.0,74,0.00,,,0.00,weatherlink.com 1.10,2013-04-29 21:32:00,
2013-04-29 17:47:00,71.9,63.0,29.93,South,190,0.0,1.0,74,0.00,,,0.00,weatherlink.com 1.10,2013-04-29 21:47:00,
2013-04-29 18:02:00,71.8,64.0,29.93,South,189,1.0,2.0,75,0.00,,,0.00,weatherlink.com 1.10,2013-04-29 22:02:00,
2013-04-29 18:17:00,72.3,64.0,29.92,South,188,0.0,2.0,74,0.00,,,0.00,weatherlink.com 1.10,2013-04-29 22:17:00,
2013-04-29 18:32:00,72.7,62.0,29.93,SE,132,0.0,4.0,70,0.00,,,0.00,weatherlink.com 1.10,2013-04-29 22:32:00,
2013-04-29 18:47:00,72.1,63.0,29.93,SE,132,0.0,1.0,73,0.00,,,0.00,weatherlink.com 1.10,2013-04-29 22:47:00,
2013-04-29 19:02:00,71.8,65.0,29.93,SE,132,0.0,1.0,78,0.00,,,0.00,weatherlink.com 1.10,2013-04-29 23:02:00,
2013-04-29 19:17:00,71.4,65.0,29.93,SE,132,0.0,1.0,79,0.00,,,0.00,weatherlink.com 1.10,2013-04-29 23:17:00,
2013-04-29 19:32:00,70.4,64.0,29.94,SE,132,0.0,1.0,80,0.00,,,0.00,weatherlink.com 1.10,2013-04-29 23:32:00,
2013-04-29 19:47:00,69.3,64.0,29.94,SE,132,0.0,0.0,82,0.00,,,0.00,weatherlink.com 1.10,2013-04-29 23:47:00,
2013-04-29 20:02:00,67.5,63.0,29.95,SE,132,0.0,0.0,85,0.00,,,0.00,weatherlink.com 1.10,2013-04-30 00:02:00,
2013-04-29 20:17:00,66.2,62.0,29.95,SE,133,0.0,0.0,87,0.00,,,0.00,weatherlink.com 1.10,2013-04-30 00:17:00,
2013-04-29 20:32:00,64.8,62.0,29.95,SE,133,0.0,0.0,90,0.00,,,0.00,weatherlink.com 1.10,2013-04-30 00:32:00,
2013-04-29 20:48:00,64.0,61.0,29.95,SE,133,0.0,0.0,91,0.00,,,0.00,weatherlink.com 1.10,2013-04-30 00:48:00,
2013-04-29 21:03:00,63.4,61.0,29.96,SE,133,0.0,0.0,93,0.00,,,0.00,weatherlink.com 1.10,2013-04-30 01:03:00,
2013-04-29 21:18:00,62.8,61.0,29.96,SE,133,0.0,0.0,94,0.00,,,0.00,weatherlink.com 1.10,2013-04-30 01:18:00,
2013-04-29 21:33:00,62.2,61.0,29.97,SE,133,0.0,0.0,94,0.00,,,0.00,weatherlink.com 1.10,2013-04-30 01:33:00,
2013-04-29 21:48:00,61.5,60.0,29.97,SE,133,0.0,0.0,94,0.00,,,0.00,weatherlink.com 1.10,2013-04-30 01:48:00,
2013-04-29 22:03:00,60.8,59.0,29.98,SE,133,0.0,0.0,95,0.00,,,0.00,weatherlink.com 1.10,2013-04-30 02:03:00,
2013-04-29 22:18:00,60.5,59.0,29.98,SE,133,0.0,0.0,95,0.00,,,0.00,weatherlink.com 1.10,2013-04-30 02:18:00,
2013-04-29 22:33:00,60.0,59.0,29.98,SE,133,0.0,0.0,96,0.00,,,0.00,weatherlink.com 1.10,2013-04-30 02:33:00,
2013-04-29 22:48:00,59.6,59.0,29.98,SE,133,0.0,0.0,96,0.00,,,0.00,weatherlink.com 1.10,2013-04-30 02:48:00,
2013-04-29 23:03:00,59.3,58.0,29.98,SE,133,0.0,0.0,96,0.00,,,0.00,weatherlink.com 1.10,2013-04-30 03:03:00,
2013-04-29 23:18:00,58.8,58.0,29.98,SE,133,0.0,0.0,96,0.00,,,0.00,weatherlink.com 1.10,2013-04-30 03:18:00,
2013-04-29 23:33:00,58.5,57.0,29.98,SE,133,0.0,0.0,96,0.00,,,0.00,weatherlink.com 1.10,2013-04-30 03:33:00,
2013-04-29 23:48:00,58.3,58.0,29.98,SE,133,0.0,0.0,97,0.00,,,0.00,weatherlink.com 1.10,2013-04-30 03:48:00,